Location: Jackson Park
(37.2862°N, 79.9123°W)
Time: 06:23:25
(UTC+00:00)

A-11 Canister half - All Passes

Search period start: 10 May 2026 00:00
Search period end: 20 May 2026 00:00
Orbit: 1515 x 1684 km, 47.2° (Epoch: 9 May)

Date Brightness Start Highest point End Pass type
(mag) Time Alt. Az. Time Alt. Az. Time Alt. Az.
10 May - 01:33:25 10° S 01:39:47 20° SE 01:46:01 10° E visible
10 May - 03:34:09 10° SW 03:43:31 73° SE 03:52:43 10° ENE visible
10 May - 05:39:44 10° W 05:48:48 54° NNW 05:57:50 10° ENE visible
10 May - 07:46:21 10° WNW 07:55:12 47° N 08:04:08 10° E visible
10 May - 09:51:42 10° WNW 10:01:00 83° NNE 10:10:31 10° ESE daylight
10 May - 11:57:14 10° WNW 12:05:16 34° SW 12:13:30 10° S daylight
11 May - 01:10:53 10° SSE 01:16:49 19° SE 01:22:40 10° E visible
11 May - 03:11:10 10° SW 03:20:31 69° SE 03:29:40 10° ENE visible
11 May - 05:16:34 10° W 05:25:42 55° NNW 05:34:46 10° ENE visible
11 May - 07:23:14 10° WNW 07:32:05 47° N 07:40:59 10° E visible
11 May - 09:28:40 10° WNW 09:37:58 80° NNE 09:47:26 10° ESE visible
11 May - 11:34:06 10° WNW 11:42:17 36° SW 11:50:41 10° SSE daylight
12 May - 00:48:26 10° SSE 00:53:53 17° SE 00:59:16 10° E visible
12 May - 02:48:10 10° SW 02:57:30 65° SE 03:06:37 10° ENE visible
12 May - 04:53:26 10° W 05:02:37 57° NNW 05:11:42 10° ENE visible
12 May - 07:00:07 10° WNW 07:08:58 46° N 07:17:49 10° ENE visible
12 May - 09:05:37 10° WNW 09:14:54 77° NNE 09:24:20 10° ESE visible
12 May - 11:10:58 10° WNW 11:19:19 39° SW 11:27:51 10° SSE daylight
13 May - 00:26:03 10° SSE 00:30:56 15° SE 00:35:46 10° E daylight
13 May - 02:25:12 10° SW 02:34:30 61° SE 02:43:34 10° ENE visible
13 May - 04:30:17 10° W 04:39:31 59° NNW 04:48:39 10° ENE visible
13 May - 06:37:00 10° WNW 06:45:50 46° N 06:54:40 10° ENE visible
13 May - 08:42:35 10° WNW 08:51:51 74° NNE 09:01:14 10° ESE visible
13 May - 10:47:52 10° WNW 10:56:20 42° SW 11:05:01 10° SSE daylight
14 May - 00:03:48 10° SSE 00:07:59 14° ESE 00:12:08 10° E daylight
14 May - 02:02:14 10° SSW 02:11:29 58° SE 02:20:31 10° ENE visible
14 May - 04:07:08 10° WSW 04:16:26 61° NNW 04:25:35 10° ENE visible
14 May - 06:13:52 10° WNW 06:22:43 46° N 06:31:32 10° ENE visible
14 May - 08:19:32 10° WNW 08:28:47 71° NNE 08:38:08 10° ESE visible
14 May - 10:24:45 10° WNW 10:33:21 45° SW 10:42:09 10° SSE daylight
14 May - 23:41:46 10° SE 23:45:03 12° ESE 23:48:19 10° ESE daylight
15 May - 01:39:17 10° SSW 01:48:29 54° SE 01:57:27 10° ENE visible
15 May - 03:44:00 10° WSW 03:53:21 63° NNW 04:02:32 10° ENE visible
15 May - 05:50:44 10° WNW 05:59:35 45° N 06:08:23 10° ENE visible
15 May - 07:56:29 10° WNW 08:05:43 68° NNE 08:15:01 10° ESE visible
15 May - 10:01:40 10° WNW 10:10:22 48° SW 10:19:15 10° SSE daylight
15 May - 23:20:12 10° SE 23:22:07 11° ESE 23:24:01 10° ESE daylight
16 May - 01:16:22 10° SSW 01:25:30 51° SE 01:34:22 10° ENE visible
16 May - 03:20:52 10° WSW 03:30:16 66° NNW 03:39:29 10° ENE visible
16 May - 05:27:36 10° WNW 05:36:27 45° N 05:45:15 10° ENE visible
16 May - 07:33:26 10° WNW 07:42:38 65° NNE 07:51:54 10° ESE visible
16 May - 09:38:35 10° WNW 09:47:24 51° SW 09:56:21 10° SSE visible
16 May - 11:49:11 10° WSW 11:50:43 10° WSW 11:52:14 10° SW daylight
17 May - 00:53:27 10° SSW 01:02:30 48° SE 01:11:18 10° ENE visible
17 May - 02:57:44 10° WSW 03:07:11 68° NNW 03:16:26 10° ENE visible
17 May - 05:04:27 10° WNW 05:13:20 46° N 05:22:07 10° ENE visible
17 May - 07:10:23 10° WNW 07:19:34 63° NNE 07:28:46 10° ESE visible
17 May - 09:15:30 10° WNW 09:24:24 54° SW 09:33:26 10° SSE visible
17 May - 11:24:44 10° WSW 11:27:46 12° WSW 11:30:51 10° SW daylight
18 May - 00:30:33 10° SSW 00:39:30 45° SE 00:48:12 10° ENE daylight
18 May - 02:34:36 10° WSW 02:44:07 71° NNW 02:53:24 10° ENE visible
18 May - 04:41:18 10° WNW 04:50:12 46° N 04:59:00 10° ENE visible
18 May - 06:47:19 10° WNW 06:56:29 61° NNE 07:05:39 10° ESE visible
18 May - 08:52:26 10° WNW 09:01:24 58° SW 09:10:30 10° SSE visible
18 May - 11:00:52 10° W 11:04:51 13° WSW 11:08:52 10° SSW daylight
19 May - 00:07:39 10° SSW 00:16:31 42° SE 00:25:06 10° ENE daylight
19 May - 02:11:28 10° WSW 02:21:03 74° NNW 02:30:22 10° ENE visible
19 May - 04:18:08 10° WNW 04:27:04 46° N 04:35:53 10° ENE visible
19 May - 06:24:15 10° WNW 06:33:24 59° NNE 06:42:31 10° E visible
19 May - 08:29:22 10° WNW 08:38:25 61° SW 08:47:33 10° SE visible
19 May - 10:37:14 10° W 10:41:54 15° WSW 10:46:38 10° SSW daylight
